This is the latest recevied weather packets stored in our database for station/object NK0Z-13. If no packets are shown the sender has not sent any weather packets the latest 10 day(s).
| Time | Temp. | Humidity | Pressure | Rain* | Wind** | Luminosity | Snow |
|---|---|---|---|---|---|---|---|
| 1777799906 | 8.89° C | 70% | 1017.8 hPa | 0 mm | - | 0 W/m² | - |
| 1777799306 | 8.89° C | 70% | 1017.9 hPa | 0 mm | - | 0 W/m² | - |
| 1777798702 | 8.89° C | 69% | 1018.2 hPa | 0 mm | - | 0 W/m² | - |
| 1777798102 | 8.89° C | 69% | 1018.1 hPa | 0 mm | - | 0 W/m² | - |
| 1777797497 | 9.44° C | 68% | 1018.1 hPa | 0 mm | - | 0 W/m² | - |
| 1777796897 | 8.33° C | 69% | 1018.1 hPa | 0 mm | - | 0 W/m² | - |
| 1777796295 | 8.33° C | 68% | 1018.4 hPa | 0 mm | - | 0 W/m² | - |
| 1777795693 | 8.33° C | 69% | 1018.3 hPa | 0 mm | - | 0 W/m² | - |
| 1777795093 | 8.33° C | 67% | 1018.5 hPa | 0 mm | - | 0 W/m² | - |
| 1777794492 | 8.33° C | 67% | 1018.4 hPa | 0 mm | - | 0 W/m² | - |
| 1777793889 | 7.78° C | 66% | 1018.5 hPa | 0 mm | - | 0 W/m² | - |
| 1777793285 | 7.78° C | 66% | 1018.7 hPa | 0 mm | - | 0 W/m² | - |
| 1777792683 | 7.78° C | 66% | 1018.9 hPa | 0 mm | - | 0 W/m² | - |
| 1777792083 | 7.78° C | 66% | 1018.8 hPa | 0 mm | - | 0 W/m² | - |
| 1777791480 | 7.22° C | 66% | 1018.9 hPa | 0 mm | - | 0 W/m² | - |
| 1777790879 | 7.78° C | 65% | 1019.3 hPa | 0 mm | - | 0 W/m² | - |
| 1777790279 | 7.78° C | 63% | 1019.2 hPa | 0 mm | - | 0 W/m² | - |
| 1777789676 | 8.33° C | 61% | 1019.1 hPa | 0 mm | - | 0 W/m² | - |
| 1777789071 | 8.33° C | 61% | 1019.1 hPa | 0 mm | - | 0 W/m² | - |
| 1777788470 | 8.33° C | 60% | 1019.1 hPa | 0 mm | - | 0 W/m² | - |
| 1777787865 | 8.89° C | 59% | 1019.4 hPa | 0 mm | - | 0 W/m² | - |
| 1777787263 | 8.89° C | 58% | 1019.2 hPa | 0 mm | - | 0 W/m² | - |
| 1777786664 | 10° C | 55% | 1019.3 hPa | 0 mm | - | 0 W/m² | - |
| 1777786064 | 10° C | 55% | 1019.3 hPa | 0 mm | - | 0 W/m² | - |
| 1777785462 | 10° C | 55% | 1019.3 hPa | 0 mm | - | 0 W/m² | - |
* Rain latest hour (hover to see other rain measurements)
** Current wind speed in m/s (hover to see current wind gust speed)